Regional Weather Roundup
Issued by NWS Newport/Morehead, NC

Current Version | Previous Version | Graphics & Text | Print | Product List | Glossary Off
Versions: 1 2 3 4 5 6 7 8 9 10 11 12 13 14 15 16 17 18 19 20 21 22 23 24 25 26 27 28 29 30 31 32 33 34 35 36 37 38 39 40 41 42 43 44 45 46 47 48 49 50

000
ASUS42 KMHX 042113
RWRMHX
WEATHER ROUNDUP FOR EASTERN NORTH CAROLINA
NATIONAL WEATHER SERVICE NEWPORT/MOREHEAD CITY NC
500 PM EDT SAT JUL 04 2015

NOTE: "FAIR" INDICATES FEW OR NO CLOUDS BELOW 12,000 FEET
WITH NO SIGNIFICANT WEATHER AND/OR OBSTRUCTIONS TO VISIBILITY

NCZ015>017-031-032-045>047-102-103-042200-
NORTH COAST

CITY           SKY/WX    TMP DP  RH WIND       PRES   REMARKS
EDENTON        LGT RAIN  76  71  84 SW10G20   29.95F
ELIZABETH CITY CLOUDY    79  73  82 SW14      29.94S
KITTY HAWK     MOCLDY    77  72  83 SW8       29.94F
MANTEO         PTSUNNY   75  71  86 W13       29.96F

$$

NCZ045>047-081-094-103-104-042200-
CENTRAL COAST

CITY           SKY/WX    TMP DP  RH WIND       PRES   REMARKS
FRISCO         SUNNY     81  73  76 SW17G25   29.99R
SWANQUARTER      N/A     88 N/A N/A W8G22     29.94S

$$

NCZ095-097-098-100-101-042200-
SOUTHERN COAST

CITY           SKY/WX    TMP DP  RH WIND       PRES   REMARKS
BEAUFORT       SUNNY     84  75  74 SW22G29   30.00F
CEDAR ISLAND     N/A     90 N/A N/A SW10G23   30.03S
JACKSONVILLE   SUNNY     89  66  46 SW18G24   29.99F
PINEY ISLAND   PTCLDY   N/A N/A N/A SW16      29.99S
WILMINGTON     MOSUNNY   91  71  51 SW13      30.01F


$$

NCZ011>013-027>030-043-044-078>080-089-090>093-098-042200-
COASTAL PLAIN

CITY           SKY/WX    TMP DP  RH WIND       PRES   REMARKS
AHOSKIE        CLOUDY   N/A N/A N/A S5        29.93F
CLINTON        SUNNY     89  69  51 W16G22    29.99S
ELIZABETHTOWN  MOSUNNY   89  68  50 SW10      30.00F
GOLDSBORO      MOSUNNY   88  68  52 SW17G24   29.94F
GREENVILLE     LGT RAIN  79  75  89 SW5       29.98F
HAVELOCK       MOSUNNY   92  64  39 W22G35    29.99F
KENANSVILLE    MOSUNNY   88  66  47 SW10G20   29.99S
KINSTON        MOSUNNY   90  68  48 SW10      29.97F
NEW BERN       SUNNY     90  68  48 SW13G21   29.99S
RICHLANDS      MOSUNNY   91  66  43 SW15G24   29.99F
ROCKY MOUNT    MOSUNNY   85  71  63 SW15G23   29.95F
WASHINGTON     MOSUNNY   77  72  84 CALM      29.97F
WHITEVILLE     MOSUNNY   87  68  54 SW7       30.01F

$$

AMZ130-135-150-152-154-156-158-170-250-252-270-ANZ085-086-088-633-658-670-042200-
MARINE OBSERVATIONS

STATION/POSITION TIME  TEMP    WIND        PRES    WAVE   SWELL
                       AIR SEA DIR/SP/G            HT/PER HT/PER
                 (UTC) (F)     (DEG/KT/KT) (MB)    (FT/S) (FT/S)
CHESAPEAKE LIGHT 2100   80      CALM  /  2 1013.7
64 E VA BEACH    2050   78 77  180/  8/ 10 1013.4    5/ 8   5/ 8
DUCK             2000   82 72  240/ 14/ 21   N/A
2 E DUCK         2041      77                N/A     2/15
OREGON INLET     2000   76 82  280/ 28/ 43 1014.8
13E OREGON INLT  2100      70                N/A     5/ 7   2/14
HATTERAS CG      2000   81 78  220/ 17/ 22 1015.1
DIAMOND BUOY     2050   81 82  230/ 23/ 29 1015.2    7/ 7   2/14
CAPE LOOKOUT     2100   83     220/ 13/ 16 1015.9
BEAUFORT LAB     2000   83 81  220/ 12/ 20 1015.4
30 SE NEW RVR IN NOT AVBL
27 SE WRIGHTSVLE 2000      80  240/ 16/ 19   N/A
5 SE WRIGHTSVLE  2008   80 79  210/ 16/ 19 1016.7
225 S CAPE HAT   2050   82 81  230/ 12/ 14 1020.8    5/ 9   5/ 9
41 SE CHARLESTON 2050   82 82  220/ 14/ 16 1017.9    3/ 9   2/ 9

$$


USA.gov is the U.S. government's official web portal to all federal, state and local government web resources and services.